Time,TemperatureF,DewpointF,PressureIn,WindDirection,WindDirectionDegrees,WindSpeedMPH,WindSpeedGustMPH,Humidity,HourlyPrecipIn,Conditions,Clouds,dailyrainin,SoftwareType,DateUTC
2013-02-07 00:00:00,44.7,31.3,30.05,SE,130,1.0,6.0,59,0.00,,,0.00,VWS V14.01,2013-02-07 06:00:00,
2013-02-07 00:01:00,44.7,31.3,30.04,SE,131,0.0,2.0,59,0.00,,,0.00,VWS V14.01,2013-02-07 06:01:00,
2013-02-07 00:06:00,44.6,31.6,30.04,SE,132,0.0,4.0,60,0.00,,,0.00,VWS V14.01,2013-02-07 06:06:00,
2013-02-07 00:11:00,44.5,31.5,30.04,SE,132,0.0,4.0,60,0.00,,,0.00,VWS V14.01,2013-02-07 06:11:00,
2013-02-07 00:16:00,44.4,31.4,30.04,SE,132,0.0,4.0,60,0.00,,,0.00,VWS V14.01,2013-02-07 06:16:00,
2013-02-07 00:21:00,44.3,31.3,30.04,SE,132,0.0,4.0,60,0.00,,,0.00,VWS V14.01,2013-02-07 06:21:00,
2013-02-07 00:26:00,44.2,31.2,30.04,SE,132,0.0,4.0,60,0.00,,,0.00,VWS V14.01,2013-02-07 06:26:00,
2013-02-07 00:30:00,44.2,31.2,30.04,SE,132,0.0,4.0,60,0.00,,,0.00,VWS V14.01,2013-02-07 06:30:00,
2013-02-07 00:31:00,44.1,31.1,30.04,SE,133,4.0,4.0,60,0.00,,,0.00,VWS V14.01,2013-02-07 06:31:00,
2013-02-07 00:36:00,44.1,31.1,30.03,SE,134,2.0,4.0,60,0.00,,,0.00,VWS V14.01,2013-02-07 06:36:00,
2013-02-07 00:42:00,44.1,31.1,30.03,ESE,115,0.0,5.0,60,0.00,,,0.00,VWS V14.01,2013-02-07 06:42:00,
2013-02-07 00:47:00,44.1,31.1,30.03,ESE,115,0.0,5.0,60,0.00,,,0.00,VWS V14.01,2013-02-07 06:47:00,
2013-02-07 00:52:00,44.1,31.1,30.03,ESE,119,2.0,5.0,60,0.00,,,0.00,VWS V14.01,2013-02-07 06:52:00,
2013-02-07 00:57:00,44.2,31.2,30.03,ESE,119,0.0,5.0,60,0.00,,,0.00,VWS V14.01,2013-02-07 06:57:00,
2013-02-07 01:00:00,44.1,31.1,30.03,ESE,121,1.0,5.0,60,0.00,,,0.00,VWS V14.01,2013-02-07 07:00:00,
2013-02-07 01:02:00,44.1,31.1,30.03,ESE,121,1.0,1.0,60,0.00,,,0.00,VWS V14.01,2013-02-07 07:02:00,
2013-02-07 01:07:00,44.0,31.0,30.02,ESE,121,0.0,2.0,60,0.00,,,0.00,VWS V14.01,2013-02-07 07:07:00,
2013-02-07 01:12:00,44.0,31.0,30.02,SE,129,0.0,4.0,60,0.00,,,0.00,VWS V14.01,2013-02-07 07:12:00,
2013-02-07 01:17:00,44.1,31.1,30.02,SE,138,2.0,5.0,60,0.00,,,0.00,VWS V14.01,2013-02-07 07:17:00,
2013-02-07 01:22:00,44.0,31.0,30.02,SE,139,0.0,5.0,60,0.00,,,0.00,VWS V14.01,2013-02-07 07:22:00,
2013-02-07 01:27:00,44.1,31.1,30.02,South,185,0.0,6.0,60,0.00,,,0.00,VWS V14.01,2013-02-07 07:27:00,
2013-02-07 01:30:00,44.1,31.1,30.01,South,185,0.0,6.0,60,0.00,,,0.00,VWS V14.01,2013-02-07 07:30:00,
2013-02-07 01:32:00,44.1,31.1,30.02,South,189,1.0,4.0,60,0.00,,,0.00,VWS V14.01,2013-02-07 07:32:00,
2013-02-07 01:37:00,44.1,31.5,30.01,South,182,0.0,4.0,61,0.00,,,0.00,VWS V14.01,2013-02-07 07:37:00,
2013-02-07 01:42:00,44.1,31.1,30.02,South,182,0.0,4.0,60,0.00,,,0.00,VWS V14.01,2013-02-07 07:42:00,
2013-02-07 01:47:00,44.1,31.5,30.02,SSE,164,0.0,6.0,61,0.00,,,0.00,VWS V14.01,2013-02-07 07:47:00,
2013-02-07 01:52:00,44.2,31.6,30.02,South,171,0.0,6.0,61,0.00,,,0.00,VWS V14.01,2013-02-07 07:52:00,
2013-02-07 01:57:00,44.2,31.6,30.02,South,171,0.0,6.0,61,0.00,,,0.00,VWS V14.01,2013-02-07 07:57:00,
2013-02-07 02:00:00,44.2,31.6,30.02,South,187,0.0,6.0,61,0.00,,,0.00,VWS V14.01,2013-02-07 08:00:00,
2013-02-07 02:02:00,44.2,31.6,30.02,SSE,166,2.0,5.0,61,0.00,,,0.00,VWS V14.01,2013-02-07 08:02:00,
2013-02-07 02:07:00,44.3,31.7,30.02,SSE,165,0.0,5.0,61,0.00,,,0.00,VWS V14.01,2013-02-07 08:07:00,
2013-02-07 02:12:00,44.3,31.7,30.02,SSE,165,0.0,5.0,61,0.00,,,0.00,VWS V14.01,2013-02-07 08:12:00,
2013-02-07 02:17:00,44.3,31.7,30.01,SSE,165,0.0,5.0,61,0.00,,,0.00,VWS V14.01,2013-02-07 08:17:00,
2013-02-07 02:22:00,44.2,31.6,30.01,SSE,165,0.0,5.0,61,0.00,,,0.00,VWS V14.01,2013-02-07 08:22:00,
2013-02-07 02:27:00,44.1,31.9,30.02,SSE,165,0.0,5.0,62,0.00,,,0.00,VWS V14.01,2013-02-07 08:27:00,
2013-02-07 02:30:00,44.1,31.9,30.02,SSE,165,0.0,5.0,62,0.00,,,0.00,VWS V14.01,2013-02-07 08:30:00,
2013-02-07 02:32:00,44.1,31.9,30.02,SSE,165,0.0,0.0,62,0.00,,,0.00,VWS V14.01,2013-02-07 08:32:00,
2013-02-07 02:37:00,44.1,31.9,30.03,NNE,24,3.0,5.0,62,0.00,,,0.00,VWS V14.01,2013-02-07 08:37:00,
2013-02-07 02:42:00,44.0,31.8,30.03,NNE,21,1.0,5.0,62,0.00,,,0.00,VWS V14.01,2013-02-07 08:42:00,
2013-02-07 02:47:00,44.1,31.9,30.03,NNE,21,0.0,5.0,62,0.00,,,0.00,VWS V14.01,2013-02-07 08:47:00,
2013-02-07 02:52:00,44.0,31.8,30.03,NNE,21,1.0,5.0,62,0.00,,,0.00,VWS V14.01,2013-02-07 08:52:00,
2013-02-07 02:57:00,43.9,32.1,30.03,NNE,21,2.0,5.0,63,0.00,,,0.00,VWS V14.01,2013-02-07 08:57:00,
2013-02-07 03:00:00,43.9,32.1,30.03,NNE,21,2.0,5.0,63,0.00,,,0.00,VWS V14.01,2013-02-07 09:00:00,
2013-02-07 03:02:00,43.8,32.0,30.02,NNE,21,0.0,3.0,63,0.00,,,0.00,VWS V14.01,2013-02-07 09:02:00,
2013-02-07 03:07:00,43.4,32.0,30.02,NNE,21,0.0,3.0,64,0.00,,,0.00,VWS V14.01,2013-02-07 09:07:00,
2013-02-07 03:12:00,43.1,32.2,30.03,NNE,21,0.0,3.0,65,0.00,,,0.00,VWS V14.01,2013-02-07 09:12:00,
2013-02-07 03:17:00,42.8,32.2,30.02,NNE,21,1.0,3.0,66,0.00,,,0.00,VWS V14.01,2013-02-07 09:17:00,
2013-02-07 03:22:00,42.4,32.2,30.02,NE,41,0.0,3.0,67,0.00,,,0.00,VWS V14.01,2013-02-07 09:22:00,
2013-02-07 03:27:00,42.0,32.2,30.02,NE,41,0.0,3.0,68,0.00,,,0.00,VWS V14.01,2013-02-07 09:27:00,
2013-02-07 03:30:00,41.9,32.1,30.02,NE,41,0.0,3.0,68,0.00,,,0.00,VWS V14.01,2013-02-07 09:30:00,
2013-02-07 03:32:00,41.8,32.4,30.02,NE,41,2.0,2.0,69,0.00,,,0.00,VWS V14.01,2013-02-07 09:32:00,
2013-02-07 03:37:00,41.6,32.6,30.02,NE,44,0.0,3.0,70,0.00,,,0.00,VWS V14.01,2013-02-07 09:37:00,
2013-02-07 03:42:00,41.4,32.4,30.02,NE,44,0.0,3.0,70,0.00,,,0.00,VWS V14.01,2013-02-07 09:42:00,
2013-02-07 03:47:00,41.2,32.5,30.02,NE,44,0.0,3.0,71,0.00,,,0.00,VWS V14.01,2013-02-07 09:47:00,
2013-02-07 03:52:00,41.1,33.1,30.02,NE,44,0.0,3.0,73,0.01,,,0.01,VWS V14.01,2013-02-07 09:52:00,
2013-02-07 03:57:00,40.9,33.9,30.02,NE,44,0.0,3.0,76,0.03,,,0.03,VWS V14.01,2013-02-07 09:57:00,
2013-02-07 04:00:00,40.8,34.2,30.02,NE,44,0.0,3.0,77,0.04,,,0.04,VWS V14.01,2013-02-07 10:00:00,
2013-02-07 04:02:00,40.7,34.4,30.01,NE,44,0.0,0.0,78,0.04,,,0.04,VWS V14.01,2013-02-07 10:02:00,
2013-02-07 04:07:00,40.4,34.7,30.01,NE,44,0.0,2.0,80,0.05,,,0.05,VWS V14.01,2013-02-07 10:07:00,
2013-02-07 04:12:00,40.2,34.8,30.01,NE,44,0.0,2.0,81,0.05,,,0.05,VWS V14.01,2013-02-07 10:12:00,
2013-02-07 04:17:00,40.0,35.0,30.01,NE,44,0.0,2.0,82,0.05,,,0.05,VWS V14.01,2013-02-07 10:17:00,
2013-02-07 04:22:00,39.7,35.0,30.00,NE,46,2.0,3.0,83,0.05,,,0.05,VWS V14.01,2013-02-07 10:22:00,
2013-02-07 04:27:00,39.5,34.5,29.99,East,80,0.0,4.0,82,0.05,,,0.05,VWS V14.01,2013-02-07 10:27:00,
2013-02-07 04:32:00,39.5,34.5,29.99,East,80,0.0,0.0,82,0.05,,,0.05,VWS V14.01,2013-02-07 10:32:00,
2013-02-07 04:37:00,39.4,34.4,29.99,East,79,0.0,0.0,82,0.05,,,0.05,VWS V14.01,2013-02-07 10:37:00,
2013-02-07 04:42:00,39.5,34.5,29.99,East,79,0.0,0.0,82,0.05,,,0.05,VWS V14.01,2013-02-07 10:42:00,
2013-02-07 04:47:00,39.5,34.8,29.99,East,80,0.0,1.0,83,0.05,,,0.05,VWS V14.01,2013-02-07 10:47:00,
2013-02-07 04:52:00,39.4,34.7,29.99,ESE,112,0.0,2.0,83,0.05,,,0.05,VWS V14.01,2013-02-07 10:52:00,
2013-02-07 04:57:00,39.5,34.5,29.99,ESE,111,0.0,2.0,82,0.05,,,0.05,VWS V14.01,2013-02-07 10:57:00,
2013-02-07 05:02:00,39.6,34.6,29.99,ESE,111,0.0,1.0,82,0.01,,,0.05,VWS V14.01,2013-02-07 11:02:00,
2013-02-07 05:07:00,39.7,34.4,29.99,ESE,111,0.0,1.0,81,0.01,,,0.05,VWS V14.01,2013-02-07 11:07:00,
2013-02-07 05:12:00,39.8,34.5,29.98,ESE,111,0.0,1.0,81,0.01,,,0.05,VWS V14.01,2013-02-07 11:12:00,
2013-02-07 05:17:00,39.9,34.5,29.98,ESE,111,0.0,1.0,81,0.01,,,0.05,VWS V14.01,2013-02-07 11:17:00,
2013-02-07 05:22:00,39.9,34.5,29.98,ESE,111,0.0,1.0,81,0.01,,,0.05,VWS V14.01,2013-02-07 11:22:00,
2013-02-07 05:27:00,39.9,34.2,29.98,ESE,111,0.0,1.0,80,0.01,,,0.05,VWS V14.01,2013-02-07 11:27:00,
2013-02-07 05:30:00,40.0,34.3,29.98,ESE,111,0.0,1.0,80,0.01,,,0.05,VWS V14.01,2013-02-07 11:30:00,
2013-02-07 05:32:00,40.1,34.8,29.98,ESE,116,0.0,2.0,81,0.00,,,0.05,VWS V14.01,2013-02-07 11:32:00,
2013-02-07 05:37:00,40.2,34.5,29.97,ESE,116,0.0,2.0,80,0.00,,,0.05,VWS V14.01,2013-02-07 11:37:00,
2013-02-07 05:42:00,40.3,34.6,29.97,ESE,116,0.0,2.0,80,0.00,,,0.05,VWS V14.01,2013-02-07 11:42:00,
2013-02-07 05:47:00,40.3,34.3,29.97,ESE,116,0.0,2.0,79,0.00,,,0.05,VWS V14.01,2013-02-07 11:47:00,
2013-02-07 05:52:00,40.4,34.4,29.97,ESE,116,0.0,2.0,79,0.00,,,0.05,VWS V14.01,2013-02-07 11:52:00,
2013-02-07 05:57:00,40.4,34.4,29.98,ESE,116,0.0,2.0,79,0.00,,,0.05,VWS V14.01,2013-02-07 11:57:00,
2013-02-07 06:00:00,40.4,34.1,29.97,ESE,116,0.0,2.0,78,0.00,,,0.05,VWS V14.01,2013-02-07 12:00:00,
2013-02-07 06:02:00,40.5,34.2,29.97,ESE,116,0.0,0.0,78,0.00,,,0.05,VWS V14.01,2013-02-07 12:02:00,
2013-02-07 06:07:00,40.6,34.3,29.97,ESE,117,2.0,2.0,78,0.00,,,0.05,VWS V14.01,2013-02-07 12:07:00,
2013-02-07 06:12:00,40.8,34.5,29.97,ESE,117,0.0,2.0,78,0.00,,,0.05,VWS V14.01,2013-02-07 12:12:00,
2013-02-07 06:18:00,40.9,34.3,29.97,South,189,1.0,2.0,77,0.00,,,0.05,VWS V14.01,2013-02-07 12:18:00,
2013-02-07 06:23:00,41.0,34.7,29.97,South,188,0.0,2.0,78,0.00,,,0.05,VWS V14.01,2013-02-07 12:23:00,
2013-02-07 06:28:00,41.0,35.3,29.97,South,188,0.0,2.0,80,0.00,,,0.05,VWS V14.01,2013-02-07 12:28:00,
2013-02-07 06:33:00,40.8,35.4,29.97,South,188,0.0,0.0,81,0.00,,,0.05,VWS V14.01,2013-02-07 12:33:00,
2013-02-07 06:38:00,40.6,35.2,29.97,South,188,0.0,0.0,81,0.00,,,0.05,VWS V14.01,2013-02-07 12:38:00,
2013-02-07 06:43:00,40.5,35.5,29.97,South,188,0.0,0.0,82,0.00,,,0.05,VWS V14.01,2013-02-07 12:43:00,
2013-02-07 06:48:00,40.4,35.3,29.97,South,188,0.0,0.0,82,0.00,,,0.05,VWS V14.01,2013-02-07 12:48:00,
2013-02-07 06:53:00,40.2,35.2,29.97,South,188,0.0,0.0,82,0.00,,,0.05,VWS V14.01,2013-02-07 12:53:00,
2013-02-07 06:58:00,40.2,35.5,29.96,South,188,0.0,0.0,83,0.00,,,0.05,VWS V14.01,2013-02-07 12:58:00,
2013-02-07 07:00:00,40.1,35.4,29.97,South,188,0.0,0.0,83,0.00,,,0.05,VWS V14.01,2013-02-07 13:00:00,
2013-02-07 07:03:00,40.1,35.4,29.97,South,188,0.0,0.0,83,0.00,,,0.05,VWS V14.01,2013-02-07 13:03:00,
2013-02-07 07:08:00,40.0,35.3,29.96,South,188,0.0,0.0,83,0.00,,,0.05,VWS V14.01,2013-02-07 13:08:00,
2013-02-07 07:13:00,39.9,34.9,29.97,South,188,0.0,0.0,82,0.00,,,0.05,VWS V14.01,2013-02-07 13:13:00,
2013-02-07 07:18:00,39.9,35.2,29.97,South,188,0.0,0.0,83,0.00,,,0.05,VWS V14.01,2013-02-07 13:18:00,
2013-02-07 07:23:00,40.0,35.3,29.97,South,188,0.0,0.0,83,0.00,,,0.05,VWS V14.01,2013-02-07 13:23:00,
2013-02-07 07:28:00,40.0,35.3,29.97,South,188,1.0,2.0,83,0.00,,,0.05,VWS V14.01,2013-02-07 13:28:00,
2013-02-07 07:30:00,40.0,35.3,29.97,South,186,1.0,2.0,83,0.00,,,0.05,VWS V14.01,2013-02-07 13:30:00,
2013-02-07 07:33:00,39.9,34.9,29.97,South,186,0.0,1.0,82,0.00,,,0.05,VWS V14.01,2013-02-07 13:33:00,
2013-02-07 07:38:00,39.9,34.5,29.97,South,186,0.0,1.0,81,0.00,,,0.05,VWS V14.01,2013-02-07 13:38:00,
2013-02-07 07:43:00,39.9,34.5,29.97,South,186,0.0,1.0,81,0.00,,,0.05,VWS V14.01,2013-02-07 13:43:00,
2013-02-07 07:48:00,39.9,34.5,29.98,South,185,1.0,2.0,81,0.00,,,0.05,VWS V14.01,2013-02-07 13:48:00,
2013-02-07 07:53:00,40.0,34.7,29.97,South,184,0.0,2.0,81,0.00,,,0.05,VWS V14.01,2013-02-07 13:53:00,
2013-02-07 07:58:00,39.9,34.9,29.97,South,184,0.0,2.0,82,0.00,,,0.05,VWS V14.01,2013-02-07 13:58:00,
2013-02-07 08:00:00,39.9,34.9,29.97,South,184,0.0,2.0,82,0.00,,,0.05,VWS V14.01,2013-02-07 14:00:00,
2013-02-07 08:03:00,39.8,34.8,29.98,South,184,0.0,0.0,82,0.00,,,0.05,VWS V14.01,2013-02-07 14:03:00,
2013-02-07 08:08:00,39.8,35.1,29.98,South,184,0.0,0.0,83,0.00,,,0.05,VWS V14.01,2013-02-07 14:08:00,
2013-02-07 08:13:00,39.8,35.1,29.98,South,184,0.0,0.0,83,0.00,,,0.05,VWS V14.01,2013-02-07 14:13:00,
2013-02-07 08:18:00,39.7,34.7,29.98,South,184,0.0,0.0,82,0.00,,,0.05,VWS V14.01,2013-02-07 14:18:00,
2013-02-07 08:23:00,39.7,34.7,29.99,South,184,0.0,0.0,82,0.00,,,0.05,VWS V14.01,2013-02-07 14:23:00,
2013-02-07 08:28:00,39.7,35.0,29.99,South,184,0.0,0.0,83,0.02,,,0.07,VWS V14.01,2013-02-07 14:28:00,
2013-02-07 08:30:00,39.7,35.0,29.99,South,184,1.0,1.0,83,0.02,,,0.07,VWS V14.01,2013-02-07 14:30:00,
2013-02-07 08:33:00,39.7,35.3,29.98,South,184,0.0,2.0,84,0.03,,,0.08,VWS V14.01,2013-02-07 14:33:00,
2013-02-07 08:38:00,39.6,35.5,29.98,South,184,0.0,2.0,85,0.03,,,0.08,VWS V14.01,2013-02-07 14:38:00,
2013-02-07 08:43:00,39.5,35.4,29.98,South,184,0.0,2.0,85,0.04,,,0.09,VWS V14.01,2013-02-07 14:43:00,
2013-02-07 08:48:00,39.3,35.2,29.98,South,184,1.0,2.0,85,0.04,,,0.09,VWS V14.01,2013-02-07 14:48:00,
2013-02-07 08:53:00,39.2,35.4,29.98,South,184,0.0,2.0,86,0.05,,,0.10,VWS V14.01,2013-02-07 14:53:00,
2013-02-07 08:58:00,39.0,35.2,29.98,ESE,107,4.0,4.0,86,0.06,,,0.11,VWS V14.01,2013-02-07 14:58:00,
2013-02-07 09:00:00,39.0,35.2,29.98,ESE,103,2.0,4.0,86,0.06,,,0.11,VWS V14.01,2013-02-07 15:00:00,
2013-02-07 09:03:00,38.9,35.1,29.98,ESE,103,0.0,2.0,86,0.06,,,0.11,VWS V14.01,2013-02-07 15:03:00,
2013-02-07 09:08:00,38.8,35.3,29.97,ESE,103,0.0,2.0,87,0.06,,,0.11,VWS V14.01,2013-02-07 15:08:00,
2013-02-07 09:13:00,38.8,35.3,29.96,East,96,0.0,4.0,87,0.06,,,0.11,VWS V14.01,2013-02-07 15:13:00,
2013-02-07 09:18:00,38.7,35.2,29.96,East,96,2.0,4.0,87,0.06,,,0.11,VWS V14.01,2013-02-07 15:18:00,
2013-02-07 09:23:00,38.6,35.4,29.96,East,96,0.0,4.0,88,0.06,,,0.11,VWS V14.01,2013-02-07 15:23:00,
2013-02-07 09:28:00,38.6,35.4,29.96,East,96,0.0,4.0,88,0.06,,,0.11,VWS V14.01,2013-02-07 15:28:00,
2013-02-07 09:30:00,38.6,35.4,29.96,East,96,0.0,4.0,88,0.06,,,0.11,VWS V14.01,2013-02-07 15:30:00,
2013-02-07 09:33:00,38.6,35.4,29.95,East,95,0.0,5.0,88,0.04,,,0.11,VWS V14.01,2013-02-07 15:33:00,
2013-02-07 09:38:00,38.6,35.4,29.95,East,95,0.0,5.0,88,0.04,,,0.11,VWS V14.01,2013-02-07 15:38:00,
2013-02-07 09:44:00,38.7,35.5,29.95,East,95,0.0,5.0,88,0.04,,,0.11,VWS V14.01,2013-02-07 15:44:00,
2013-02-07 09:49:00,38.9,35.7,29.95,East,95,0.0,5.0,88,0.05,,,0.12,VWS V14.01,2013-02-07 15:49:00,
2013-02-07 09:54:00,38.9,35.7,29.95,East,95,0.0,5.0,88,0.05,,,0.12,VWS V14.01,2013-02-07 15:54:00,
2013-02-07 09:59:00,39.0,35.8,29.95,East,95,0.0,5.0,88,0.06,,,0.13,VWS V14.01,2013-02-07 15:59:00,
2013-02-07 10:00:00,39.1,36.1,29.95,East,95,0.0,5.0,89,0.06,,,0.13,VWS V14.01,2013-02-07 16:00:00,
2013-02-07 10:04:00,39.1,36.1,29.95,East,95,0.0,0.0,89,0.02,,,0.13,VWS V14.01,2013-02-07 16:04:00,
2013-02-07 10:09:00,39.2,36.2,29.95,East,95,0.0,0.0,89,0.02,,,0.13,VWS V14.01,2013-02-07 16:09:00,
2013-02-07 10:14:00,39.4,36.4,29.95,East,95,1.0,2.0,89,0.02,,,0.13,VWS V14.01,2013-02-07 16:14:00,
2013-02-07 10:19:00,39.5,36.5,29.94,East,95,0.0,2.0,89,0.02,,,0.13,VWS V14.01,2013-02-07 16:19:00,
2013-02-07 10:24:00,39.7,36.7,29.95,East,95,0.0,2.0,89,0.02,,,0.13,VWS V14.01,2013-02-07 16:24:00,
2013-02-07 10:29:00,40.0,37.0,29.94,East,95,0.0,2.0,89,0.02,,,0.13,VWS V14.01,2013-02-07 16:29:00,
2013-02-07 10:30:00,40.0,37.3,29.94,East,95,0.0,2.0,90,0.02,,,0.13,VWS V14.01,2013-02-07 16:30:00,
2013-02-07 10:34:00,40.2,37.5,29.94,East,95,0.0,0.0,90,0.02,,,0.13,VWS V14.01,2013-02-07 16:34:00,
2013-02-07 10:39:00,40.4,37.7,29.94,East,95,0.0,0.0,90,0.02,,,0.13,VWS V14.01,2013-02-07 16:39:00,
2013-02-07 10:44:00,40.5,37.5,29.94,East,95,0.0,0.0,89,0.02,,,0.13,VWS V14.01,2013-02-07 16:44:00,
2013-02-07 10:49:00,40.7,37.7,29.94,East,96,1.0,2.0,89,0.02,,,0.13,VWS V14.01,2013-02-07 16:49:00,
2013-02-07 10:54:00,40.7,37.4,29.94,SSE,162,0.0,5.0,88,0.02,,,0.13,VWS V14.01,2013-02-07 16:54:00,
2013-02-07 10:59:00,40.7,37.4,29.94,SSE,162,0.0,5.0,88,0.03,,,0.14,VWS V14.01,2013-02-07 16:59:00,
2013-02-07 11:00:00,40.7,37.4,29.94,SSE,162,0.0,5.0,88,0.03,,,0.14,VWS V14.01,2013-02-07 17:00:00,
2013-02-07 11:04:00,40.8,37.5,29.94,SSE,162,0.0,0.0,88,0.01,,,0.14,VWS V14.01,2013-02-07 17:04:00,
2013-02-07 11:09:00,40.8,37.5,29.95,SSE,162,0.0,0.0,88,0.01,,,0.14,VWS V14.01,2013-02-07 17:09:00,
2013-02-07 11:14:00,40.9,37.6,29.94,SSE,161,2.0,4.0,88,0.01,,,0.14,VWS V14.01,2013-02-07 17:14:00,
2013-02-07 11:19:00,40.8,37.2,29.94,SSE,161,0.0,4.0,87,0.02,,,0.15,VWS V14.01,2013-02-07 17:19:00,
2013-02-07 11:24:00,40.8,37.2,29.93,SSE,161,0.0,4.0,87,0.02,,,0.15,VWS V14.01,2013-02-07 17:24:00,
2013-02-07 11:29:00,40.8,37.2,29.93,SSE,161,0.0,4.0,87,0.04,,,0.17,VWS V14.01,2013-02-07 17:29:00,
2013-02-07 11:30:00,40.8,37.2,29.94,SSE,161,0.0,4.0,87,0.04,,,0.17,VWS V14.01,2013-02-07 17:30:00,
2013-02-07 11:34:00,40.7,37.1,29.93,SSE,161,0.0,0.0,87,0.04,,,0.17,VWS V14.01,2013-02-07 17:34:00,
2013-02-07 11:39:00,40.7,37.4,29.93,SSE,161,0.0,0.0,88,0.05,,,0.18,VWS V14.01,2013-02-07 17:39:00,
2013-02-07 11:44:00,40.8,37.5,29.93,SSE,161,0.0,0.0,88,0.06,,,0.19,VWS V14.01,2013-02-07 17:44:00,
2013-02-07 11:49:00,40.9,37.6,29.93,SSE,161,0.0,0.0,88,0.08,,,0.21,VWS V14.01,2013-02-07 17:49:00,
2013-02-07 11:54:00,40.9,37.9,29.93,SSE,161,0.0,0.0,89,0.09,,,0.22,VWS V14.01,2013-02-07 17:54:00,
2013-02-07 11:59:00,41.0,38.0,29.92,SSE,161,1.0,1.0,89,0.10,,,0.23,VWS V14.01,2013-02-07 17:59:00,
2013-02-07 12:00:00,41.0,37.7,29.92,SSE,161,1.0,2.0,88,0.11,,,0.24,VWS V14.01,2013-02-07 18:00:00,
2013-02-07 12:09:00,41.1,38.1,29.92,SSE,161,0.0,1.0,89,0.13,,,0.27,VWS V14.01,2013-02-07 18:09:00,
2013-02-07 12:14:00,41.1,38.1,29.92,SSE,161,0.0,1.0,89,0.13,,,0.27,VWS V14.01,2013-02-07 18:14:00,
2013-02-07 12:19:00,41.1,38.1,29.92,SSE,161,0.0,1.0,89,0.13,,,0.27,VWS V14.01,2013-02-07 18:19:00,
2013-02-07 12:24:00,41.0,38.0,29.92,SSE,161,0.0,1.0,89,0.14,,,0.28,VWS V14.01,2013-02-07 18:24:00,
2013-02-07 12:29:00,41.1,38.1,29.92,SSE,161,0.0,1.0,89,0.15,,,0.29,VWS V14.01,2013-02-07 18:29:00,
2013-02-07 12:30:00,41.1,38.1,29.92,SSE,161,0.0,1.0,89,0.15,,,0.29,VWS V14.01,2013-02-07 18:30:00,
2013-02-07 12:34:00,41.1,38.4,29.92,SSE,161,0.0,0.0,90,0.12,,,0.29,VWS V14.01,2013-02-07 18:34:00,
2013-02-07 12:39:00,41.2,38.5,29.92,SSE,161,0.0,0.0,90,0.14,,,0.31,VWS V14.01,2013-02-07 18:39:00,
2013-02-07 12:44:00,41.2,38.5,29.91,SSE,161,0.0,0.0,90,0.14,,,0.31,VWS V14.01,2013-02-07 18:44:00,
2013-02-07 12:49:00,41.3,38.6,29.91,SSE,161,0.0,0.0,90,0.15,,,0.32,VWS V14.01,2013-02-07 18:49:00,
2013-02-07 12:54:00,41.4,38.7,29.90,SSE,161,0.0,1.0,90,0.16,,,0.33,VWS V14.01,2013-02-07 18:54:00,
2013-02-07 12:59:00,41.5,38.8,29.90,SSE,161,0.0,2.0,90,0.17,,,0.34,VWS V14.01,2013-02-07 18:59:00,
2013-02-07 13:00:00,41.5,38.8,29.90,SSE,161,0.0,2.0,90,0.17,,,0.34,VWS V14.01,2013-02-07 19:00:00,
2013-02-07 13:04:00,41.6,38.9,29.90,SSE,161,0.0,0.0,90,0.10,,,0.34,VWS V14.01,2013-02-07 19:04:00,
2013-02-07 13:09:00,41.6,38.9,29.90,SSE,161,0.0,2.0,90,0.10,,,0.34,VWS V14.01,2013-02-07 19:09:00,
2013-02-07 13:14:00,41.7,39.0,29.90,SSE,161,0.0,2.0,90,0.10,,,0.34,VWS V14.01,2013-02-07 19:14:00,
2013-02-07 13:19:00,41.9,39.5,29.90,SSE,161,0.0,2.0,91,0.10,,,0.34,VWS V14.01,2013-02-07 19:19:00,
2013-02-07 13:24:00,42.0,39.6,29.90,SSE,161,0.0,2.0,91,0.11,,,0.35,VWS V14.01,2013-02-07 19:24:00,
2013-02-07 13:29:00,42.2,39.8,29.89,SSE,161,0.0,2.0,91,0.11,,,0.35,VWS V14.01,2013-02-07 19:29:00,
2013-02-07 13:30:00,42.2,39.8,29.89,SSE,161,0.0,2.0,91,0.11,,,0.35,VWS V14.01,2013-02-07 19:30:00,
2013-02-07 13:34:00,42.3,39.9,29.90,SSE,161,0.0,0.0,91,0.06,,,0.35,VWS V14.01,2013-02-07 19:34:00,
2013-02-07 13:39:00,42.5,40.1,29.90,SSE,161,1.0,2.0,91,0.07,,,0.36,VWS V14.01,2013-02-07 19:39:00,
2013-02-07 13:44:00,42.6,40.2,29.89,SSE,161,0.0,2.0,91,0.07,,,0.36,VWS V14.01,2013-02-07 19:44:00,
2013-02-07 13:49:00,42.7,40.3,29.89,SSE,161,0.0,2.0,91,0.08,,,0.37,VWS V14.01,2013-02-07 19:49:00,
2013-02-07 13:54:00,42.8,40.4,29.89,SSE,161,0.0,2.0,91,0.08,,,0.37,VWS V14.01,2013-02-07 19:54:00,
2013-02-07 13:59:00,42.9,40.5,29.89,SSE,161,0.0,2.0,91,0.08,,,0.37,VWS V14.01,2013-02-07 19:59:00,
2013-02-07 14:00:00,43.0,40.6,29.89,SSE,161,0.0,2.0,91,0.08,,,0.37,VWS V14.01,2013-02-07 20:00:00,
2013-02-07 14:04:00,43.1,40.7,29.89,SSE,161,0.0,1.0,91,0.04,,,0.38,VWS V14.01,2013-02-07 20:04:00,
2013-02-07 14:09:00,43.2,40.8,29.89,SSE,161,0.0,1.0,91,0.05,,,0.39,VWS V14.01,2013-02-07 20:09:00,
2013-02-07 14:15:00,43.3,40.8,29.89,SSE,161,0.0,1.0,91,0.05,,,0.39,VWS V14.01,2013-02-07 20:15:00,
2013-02-07 14:20:00,43.4,41.0,29.89,SSE,161,1.0,2.0,91,0.05,,,0.39,VWS V14.01,2013-02-07 20:20:00,
2013-02-07 14:25:00,43.5,41.0,29.89,SSE,161,0.0,2.0,91,0.05,,,0.39,VWS V14.01,2013-02-07 20:25:00,
2013-02-07 14:30:00,43.6,41.2,29.88,SSE,161,0.0,2.0,91,0.05,,,0.39,VWS V14.01,2013-02-07 20:30:00,
2013-02-07 14:35:00,43.8,41.3,29.88,SSE,161,0.0,0.0,91,0.05,,,0.40,VWS V14.01,2013-02-07 20:35:00,
2013-02-07 14:40:00,43.9,41.5,29.88,SSE,161,0.0,0.0,91,0.05,,,0.40,VWS V14.01,2013-02-07 20:40:00,
2013-02-07 14:45:00,43.9,41.5,29.89,SSE,161,0.0,2.0,91,0.06,,,0.41,VWS V14.01,2013-02-07 20:45:00,
2013-02-07 14:50:00,44.0,41.5,29.88,SSE,161,0.0,2.0,91,0.06,,,0.41,VWS V14.01,2013-02-07 20:50:00,
2013-02-07 14:55:00,44.0,41.5,29.89,SSE,161,0.0,2.0,91,0.06,,,0.41,VWS V14.01,2013-02-07 20:55:00,
2013-02-07 15:00:00,44.1,41.7,29.89,SSE,161,1.0,2.0,91,0.06,,,0.41,VWS V14.01,2013-02-07 21:00:00,
2013-02-07 15:05:00,44.2,41.7,29.89,SSE,161,0.0,2.0,91,0.04,,,0.41,VWS V14.01,2013-02-07 21:05:00,
2013-02-07 15:10:00,44.2,41.7,29.89,SSE,161,0.0,2.0,91,0.04,,,0.41,VWS V14.01,2013-02-07 21:10:00,
2013-02-07 15:15:00,44.3,41.8,29.88,SSE,161,0.0,2.0,91,0.04,,,0.41,VWS V14.01,2013-02-07 21:15:00,
2013-02-07 15:20:00,44.3,41.8,29.88,SSE,161,1.0,2.0,91,0.04,,,0.41,VWS V14.01,2013-02-07 21:20:00,
2013-02-07 15:25:00,44.4,41.9,29.88,SSE,161,0.0,2.0,91,0.04,,,0.41,VWS V14.01,2013-02-07 21:25:00,
2013-02-07 15:30:00,44.4,41.9,29.88,SSE,161,0.0,2.0,91,0.04,,,0.41,VWS V14.01,2013-02-07 21:30:00,
2013-02-07 15:35:00,44.3,41.8,29.88,SSE,161,0.0,2.0,91,0.02,,,0.41,VWS V14.01,2013-02-07 21:35:00,
2013-02-07 15:40:00,44.1,41.7,29.88,SSE,161,0.0,2.0,91,0.02,,,0.41,VWS V14.01,2013-02-07 21:40:00,
2013-02-07 15:45:00,44.0,41.5,29.89,SSE,161,0.0,2.0,91,0.02,,,0.41,VWS V14.01,2013-02-07 21:45:00,
2013-02-07 15:50:00,43.9,41.5,29.89,SSE,161,0.0,2.0,91,0.02,,,0.41,VWS V14.01,2013-02-07 21:50:00,
2013-02-07 15:55:00,44.2,42.0,29.89,West,278,2.0,6.0,92,0.02,,,0.41,VWS V14.01,2013-02-07 21:55:00,
2013-02-07 16:00:00,44.5,42.3,29.89,West,279,1.0,6.0,92,0.02,,,0.41,VWS V14.01,2013-02-07 22:00:00,
2013-02-07 16:05:00,44.8,42.6,29.90,West,267,5.0,6.0,92,0.00,,,0.41,VWS V14.01,2013-02-07 22:05:00,
2013-02-07 16:10:00,44.9,42.7,29.90,WSW,238,2.0,7.0,92,0.00,,,0.41,VWS V14.01,2013-02-07 22:10:00,
2013-02-07 16:15:00,44.9,42.4,29.90,WSW,239,5.0,8.0,91,0.00,,,0.41,VWS V14.01,2013-02-07 22:15:00,
2013-02-07 16:20:00,44.9,42.4,29.91,West,261,3.0,8.0,91,0.00,,,0.41,VWS V14.01,2013-02-07 22:20:00,
2013-02-07 16:25:00,44.8,42.0,29.91,SW,228,2.0,9.0,90,0.00,,,0.41,VWS V14.01,2013-02-07 22:25:00,
2013-02-07 16:30:00,44.7,42.0,29.91,NW,307,8.0,8.0,90,0.00,,,0.41,VWS V14.01,2013-02-07 22:30:00,
2013-02-07 16:35:00,44.6,41.8,29.91,WSW,251,4.0,13.0,90,0.00,,,0.41,VWS V14.01,2013-02-07 22:35:00,
2013-02-07 16:40:00,44.5,41.8,29.91,WSW,251,0.0,13.0,90,0.00,,,0.41,VWS V14.01,2013-02-07 22:40:00,
2013-02-07 16:45:00,44.5,41.8,29.91,WNW,288,1.0,13.0,90,0.00,,,0.41,VWS V14.01,2013-02-07 22:45:00,
2013-02-07 16:50:00,44.4,41.7,29.92,WNW,288,4.0,13.0,90,0.00,,,0.41,VWS V14.01,2013-02-07 22:50:00,
2013-02-07 16:55:00,44.4,41.7,29.91,WNW,288,0.0,13.0,90,0.00,,,0.41,VWS V14.01,2013-02-07 22:55:00,
2013-02-07 17:00:00,44.3,41.6,29.91,NNW,346,1.0,13.0,90,0.00,,,0.41,VWS V14.01,2013-02-07 23:00:00,
2013-02-07 17:05:00,44.2,41.2,29.91,NNW,346,0.0,1.0,89,0.00,,,0.41,VWS V14.01,2013-02-07 23:05:00,
2013-02-07 17:10:00,44.2,41.2,29.91,NNW,346,0.0,2.0,89,0.00,,,0.41,VWS V14.01,2013-02-07 23:10:00,
2013-02-07 17:15:00,44.1,41.4,29.92,NNW,346,1.0,2.0,90,0.00,,,0.41,VWS V14.01,2013-02-07 23:15:00,
2013-02-07 17:20:00,44.1,41.4,29.92,NNW,346,1.0,2.0,90,0.00,,,0.41,VWS V14.01,2013-02-07 23:20:00,
2013-02-07 17:25:00,44.0,41.3,29.93,NNW,346,0.0,4.0,90,0.00,,,0.41,VWS V14.01,2013-02-07 23:25:00,
2013-02-07 17:30:00,44.0,41.3,29.93,WNW,286,0.0,0.0,90,0.00,,,0.41,VWS V14.01,2013-02-07 23:30:00,
2013-02-07 17:35:00,44.0,41.3,29.94,WNW,286,4.0,4.0,90,0.00,,,0.41,VWS V14.01,2013-02-07 23:35:00,
2013-02-07 17:40:00,43.9,41.2,29.95,WNW,286,1.0,5.0,90,0.00,,,0.41,VWS V14.01,2013-02-07 23:40:00,
2013-02-07 17:45:00,43.9,41.2,29.96,WNW,286,2.0,5.0,90,0.00,,,0.41,VWS V14.01,2013-02-07 23:45:00,
2013-02-07 17:50:00,43.8,41.1,29.96,West,272,2.0,6.0,90,0.00,,,0.41,VWS V14.01,2013-02-07 23:50:00,
2013-02-07 17:55:00,43.6,40.6,29.96,North,355,4.0,12.0,89,0.00,,,0.41,VWS V14.01,2013-02-07 23:55:00,
2013-02-07 18:00:00,43.5,40.2,29.96,WNW,292,8.0,13.0,88,0.00,,,0.41,VWS V14.01,2013-02-08 00:00:00,
2013-02-07 18:01:00,43.5,40.2,29.96,WNW,298,7.0,8.0,88,0.00,,,0.41,VWS V14.01,2013-02-08 00:01:00,
2013-02-07 18:06:00,43.4,39.8,29.97,NW,315,2.0,14.0,87,0.00,,,0.41,VWS V14.01,2013-02-08 00:06:00,
2013-02-07 18:11:00,43.3,39.7,29.97,NW,306,5.0,14.0,87,0.00,,,0.41,VWS V14.01,2013-02-08 00:11:00,
2013-02-07 18:16:00,43.2,39.6,29.97,NW,319,6.0,14.0,87,0.00,,,0.41,VWS V14.01,2013-02-08 00:16:00,
2013-02-07 18:21:00,43.1,39.8,29.98,WNW,294,2.0,14.0,88,0.00,,,0.41,VWS V14.01,2013-02-08 00:21:00,
2013-02-07 18:26:00,43.0,39.7,29.97,NW,307,4.0,14.0,88,0.00,,,0.41,VWS V14.01,2013-02-08 00:26:00,
2013-02-07 18:30:00,42.9,39.6,29.98,NW,314,2.0,14.0,88,0.00,,,0.41,VWS V14.01,2013-02-08 00:30:00,
2013-02-07 18:31:00,42.9,39.6,29.98,WNW,284,8.0,11.0,88,0.00,,,0.41,VWS V14.01,2013-02-08 00:31:00,
2013-02-07 18:36:00,42.9,39.6,29.98,NNW,348,2.0,11.0,88,0.00,,,0.41,VWS V14.01,2013-02-08 00:36:00,
2013-02-07 18:41:00,42.8,39.5,29.98,NW,312,1.0,11.0,88,0.00,,,0.41,VWS V14.01,2013-02-08 00:41:00,
2013-02-07 18:46:00,42.7,39.4,29.99,West,280,5.0,13.0,88,0.00,,,0.41,VWS V14.01,2013-02-08 00:46:00,
2013-02-07 18:51:00,42.6,39.3,30.00,WNW,296,1.0,13.0,88,0.00,,,0.41,VWS V14.01,2013-02-08 00:51:00,
2013-02-07 18:56:00,42.4,39.1,30.00,NNE,13,8.0,13.0,88,0.00,,,0.41,VWS V14.01,2013-02-08 00:56:00,
2013-02-07 19:00:00,42.3,39.0,30.00,West,267,4.0,13.0,88,0.00,,,0.41,VWS V14.01,2013-02-08 01:00:00,
2013-02-07 19:01:00,42.2,38.9,30.01,West,277,6.0,6.0,88,0.00,,,0.41,VWS V14.01,2013-02-08 01:01:00,
2013-02-07 19:06:00,42.0,38.4,30.01,WNW,292,14.0,14.0,87,0.00,,,0.41,VWS V14.01,2013-02-08 01:06:00,
2013-02-07 19:11:00,41.8,38.2,30.01,WNW,294,14.0,15.0,87,0.00,,,0.41,VWS V14.01,2013-02-08 01:11:00,
2013-02-07 19:16:00,41.6,38.3,30.01,ESE,106,1.0,15.0,88,0.00,,,0.41,VWS V14.01,2013-02-08 01:16:00,
2013-02-07 19:21:00,41.4,37.8,30.01,NNW,327,6.0,15.0,87,0.00,,,0.41,VWS V14.01,2013-02-08 01:21:00,
2013-02-07 19:26:00,41.2,37.6,30.01,West,277,2.0,15.0,87,0.00,,,0.41,VWS V14.01,2013-02-08 01:26:00,
2013-02-07 19:30:00,41.0,37.7,30.01,WNW,300,4.0,15.0,88,0.00,,,0.41,VWS V14.01,2013-02-08 01:30:00,
2013-02-07 19:31:00,41.0,37.7,30.01,WNW,296,4.0,11.0,88,0.00,,,0.41,VWS V14.01,2013-02-08 01:31:00,
2013-02-07 19:36:00,40.9,37.6,30.01,WNW,294,5.0,11.0,88,0.00,,,0.41,VWS V14.01,2013-02-08 01:36:00,
2013-02-07 19:41:00,40.8,37.5,30.02,NNW,330,5.0,11.0,88,0.00,,,0.41,VWS V14.01,2013-02-08 01:41:00,
2013-02-07 19:46:00,40.6,37.3,30.02,West,281,2.0,21.0,88,0.00,,,0.41,VWS V14.01,2013-02-08 01:46:00,
2013-02-07 19:51:00,40.3,37.0,30.03,WNW,296,1.0,21.0,88,0.00,,,0.41,VWS V14.01,2013-02-08 01:51:00,
2013-02-07 19:56:00,40.0,36.7,30.03,East,82,3.0,21.0,88,0.00,,,0.41,VWS V14.01,2013-02-08 01:56:00,
2013-02-07 20:00:00,39.8,36.5,30.03,NNW,347,5.0,21.0,88,0.00,,,0.41,VWS V14.01,2013-02-08 02:00:00,
2013-02-07 20:01:00,39.8,36.5,30.03,NNW,347,0.0,1.0,88,0.00,,,0.41,VWS V14.01,2013-02-08 02:01:00,
2013-02-07 20:06:00,39.7,36.4,30.03,WNW,288,2.0,8.0,88,0.00,,,0.41,VWS V14.01,2013-02-08 02:06:00,
2013-02-07 20:11:00,39.5,36.2,30.03,NNW,340,2.0,14.0,88,0.00,,,0.41,VWS V14.01,2013-02-08 02:11:00,
2013-02-07 20:16:00,39.3,36.0,30.04,WNW,282,5.0,14.0,88,0.00,,,0.41,VWS V14.01,2013-02-08 02:16:00,
2013-02-07 20:21:00,39.2,36.0,30.04,NW,306,6.0,14.0,88,0.00,,,0.41,VWS V14.01,2013-02-08 02:21:00,
2013-02-07 20:26:00,39.1,35.8,30.04,WSW,252,4.0,14.0,88,0.00,,,0.41,VWS V14.01,2013-02-08 02:26:00,
2013-02-07 20:30:00,39.0,35.8,30.04,WNW,282,2.0,14.0,88,0.00,,,0.41,VWS V14.01,2013-02-08 02:30:00,
2013-02-07 20:31:00,38.9,35.7,30.05,NW,314,5.0,5.0,88,0.00,,,0.41,VWS V14.01,2013-02-08 02:31:00,
2013-02-07 20:36:00,38.8,35.6,30.05,West,279,15.0,16.0,88,0.00,,,0.41,VWS V14.01,2013-02-08 02:36:00,
2013-02-07 20:41:00,38.6,35.4,30.05,NNE,13,4.0,16.0,88,0.00,,,0.41,VWS V14.01,2013-02-08 02:41:00,
2013-02-07 20:46:00,38.4,35.2,30.06,West,271,4.0,16.0,88,0.00,,,0.41,VWS V14.01,2013-02-08 02:46:00,
2013-02-07 20:51:00,38.3,35.1,30.06,NNW,336,2.0,16.0,88,0.00,,,0.41,VWS V14.01,2013-02-08 02:51:00,
2013-02-07 20:56:00,38.1,34.9,30.06,West,279,6.0,16.0,88,0.00,,,0.41,VWS V14.01,2013-02-08 02:56:00,
2013-02-07 21:00:00,38.0,34.8,30.06,North,355,6.0,16.0,88,0.00,,,0.41,VWS V14.01,2013-02-08 03:00:00,
2013-02-07 21:01:00,38.0,35.0,30.06,NW,320,1.0,8.0,89,0.00,,,0.41,VWS V14.01,2013-02-08 03:01:00,
2013-02-07 21:06:00,37.9,34.7,30.06,West,281,7.0,9.0,88,0.00,,,0.41,VWS V14.01,2013-02-08 03:06:00,
2013-02-07 21:11:00,37.8,34.6,30.06,NNE,21,3.0,9.0,88,0.00,,,0.41,VWS V14.01,2013-02-08 03:11:00,
2013-02-07 21:16:00,37.8,34.6,30.06,NW,306,5.0,11.0,88,0.00,,,0.41,VWS V14.01,2013-02-08 03:16:00,
2013-02-07 21:21:00,37.7,34.5,30.07,NW,325,2.0,17.0,88,0.00,,,0.41,VWS V14.01,2013-02-08 03:21:00,
2013-02-07 21:26:00,37.6,34.4,30.07,West,273,7.0,17.0,88,0.00,,,0.41,VWS V14.01,2013-02-08 03:26:00,
2013-02-07 21:30:00,37.5,34.3,30.07,WNW,299,2.0,17.0,88,0.00,,,0.41,VWS V14.01,2013-02-08 03:30:00,
2013-02-07 21:31:00,37.5,34.3,30.07,WNW,299,1.0,2.0,88,0.00,,,0.41,VWS V14.01,2013-02-08 03:31:00,
2013-02-07 21:36:00,37.5,34.3,30.07,NW,309,1.0,9.0,88,0.00,,,0.41,VWS V14.01,2013-02-08 03:36:00,
2013-02-07 21:41:00,37.4,34.2,30.07,West,267,6.0,9.0,88,0.00,,,0.41,VWS V14.01,2013-02-08 03:41:00,
2013-02-07 21:46:00,37.2,34.0,30.08,WNW,294,1.0,12.0,88,0.00,,,0.41,VWS V14.01,2013-02-08 03:46:00,
2013-02-07 21:51:00,37.0,33.8,30.08,NW,317,2.0,12.0,88,0.00,,,0.41,VWS V14.01,2013-02-08 03:51:00,
2013-02-07 21:56:00,36.8,33.6,30.08,WNW,293,0.0,12.0,88,0.00,,,0.41,VWS V14.01,2013-02-08 03:56:00,
2013-02-07 22:00:00,36.7,33.5,30.07,NW,321,2.0,12.0,88,0.00,,,0.41,VWS V14.01,2013-02-08 04:00:00,
2013-02-07 22:01:00,36.7,33.5,30.08,NW,304,4.0,6.0,88,0.00,,,0.41,VWS V14.01,2013-02-08 04:01:00,
2013-02-07 22:06:00,36.6,33.4,30.08,WNW,285,4.0,7.0,88,0.00,,,0.41,VWS V14.01,2013-02-08 04:06:00,
2013-02-07 22:11:00,36.5,33.3,30.08,West,280,7.0,7.0,88,0.00,,,0.41,VWS V14.01,2013-02-08 04:11:00,
2013-02-07 22:16:00,36.4,33.2,30.08,NW,325,2.0,9.0,88,0.00,,,0.41,VWS V14.01,2013-02-08 04:16:00,
2013-02-07 22:21:00,36.3,33.1,30.08,West,270,7.0,9.0,88,0.00,,,0.41,VWS V14.01,2013-02-08 04:21:00,
2013-02-07 22:26:00,36.3,33.4,30.08,WNW,302,1.0,11.0,89,0.00,,,0.41,VWS V14.01,2013-02-08 04:26:00,
2013-02-07 22:30:00,36.2,33.3,30.08,NNW,329,2.0,11.0,89,0.00,,,0.41,VWS V14.01,2013-02-08 04:30:00,
2013-02-07 22:31:00,36.2,33.3,30.08,North,360,0.0,4.0,89,0.00,,,0.41,VWS V14.01,2013-02-08 04:31:00,
2013-02-07 22:36:00,36.2,33.3,30.09,NW,312,0.0,7.0,89,0.00,,,0.41,VWS V14.01,2013-02-08 04:36:00,
2013-02-07 22:41:00,36.1,33.2,30.09,NNE,30,4.0,16.0,89,0.00,,,0.41,VWS V14.01,2013-02-08 04:41:00,
2013-02-07 22:46:00,36.0,33.1,30.09,WNW,303,6.0,16.0,89,0.00,,,0.41,VWS V14.01,2013-02-08 04:46:00,
2013-02-07 22:51:00,36.0,33.1,30.09,WNW,287,6.0,16.0,89,0.00,,,0.41,VWS V14.01,2013-02-08 04:51:00,
2013-02-07 22:56:00,35.9,33.0,30.09,West,272,6.0,16.0,89,0.00,,,0.41,VWS V14.01,2013-02-08 04:56:00,
2013-02-07 23:00:00,35.8,32.9,30.09,NW,313,2.0,16.0,89,0.00,,,0.41,VWS V14.01,2013-02-08 05:00:00,
2013-02-07 23:01:00,35.7,32.8,30.09,NW,311,2.0,5.0,89,0.00,,,0.41,VWS V14.01,2013-02-08 05:01:00,
2013-02-07 23:06:00,35.7,32.8,30.09,WNW,285,7.0,8.0,89,0.00,,,0.41,VWS V14.01,2013-02-08 05:06:00,
2013-02-07 23:11:00,35.6,32.7,30.10,NW,316,1.0,8.0,89,0.00,,,0.41,VWS V14.01,2013-02-08 05:11:00,
2013-02-07 23:16:00,35.5,32.6,30.10,NW,315,2.0,12.0,89,0.00,,,0.41,VWS V14.01,2013-02-08 05:16:00,
2013-02-07 23:22:00,35.5,32.6,30.10,NNW,337,1.0,12.0,89,0.00,,,0.41,VWS V14.01,2013-02-08 05:22:00,
2013-02-07 23:27:00,35.4,32.5,30.10,WNW,301,4.0,13.0,89,0.00,,,0.41,VWS V14.01,2013-02-08 05:27:00,
2013-02-07 23:30:00,35.4,32.5,30.10,NW,321,2.0,13.0,89,0.00,,,0.41,VWS V14.01,2013-02-08 05:30:00,
2013-02-07 23:32:00,35.3,32.4,30.09,NNW,329,2.0,5.0,89,0.00,,,0.41,VWS V14.01,2013-02-08 05:32:00,
2013-02-07 23:37:00,35.3,32.4,30.10,WNW,294,7.0,12.0,89,0.00,,,0.41,VWS V14.01,2013-02-08 05:37:00,